Location: Male Bielice
(48.6330°N, 18.3330°E)
Time: 16:36:19
(UTC+02:00)

ISS - Visible Passes

Search period start: 27 March 2017 00:00
Search period end: 06 April 2017 00:00
Orbit: 399 x 409 km, 51.6° (Epoch: 27 March)

Date Brightness Start Highest point End Pass type
(mag) Time Alt. Az. Time Alt. Az. Time Alt. Az.
27 Mar -1.9 20:17:00 10° S 20:18:27 14° SSE 20:18:27 14° SSE visible
28 Mar -3.1 20:59:27 10° SW 21:01:52 38° S 21:01:52 38° S visible
29 Mar -2.8 20:07:27 10° SSW 20:10:18 28° SE 20:12:18 15° E visible
29 Mar -2.0 21:43:18 10° WSW 21:45:00 28° W 21:45:00 28° W visible
30 Mar -4.0 20:50:53 10° WSW 20:54:08 81° SSE 20:55:12 39° ENE visible
30 Mar -0.6 22:27:36 10° W 22:27:53 12° WNW 22:27:53 12° WNW visible
31 Mar -3.6 19:58:34 10° SW 20:01:45 53° SSE 20:04:57 10° ENE visible
31 Mar -3.0 21:35:03 10° W 21:37:53 50° NW 21:37:53 50° NW visible
01 Apr -3.5 20:42:30 10° W 20:45:45 66° NNW 20:47:46 21° ENE visible
01 Apr -1.1 22:19:18 10° WNW 22:20:25 19° WNW 22:20:25 19° WNW visible
02 Apr -3.8 19:50:00 10° WSW 19:53:16 89° NNW 19:56:34 10° ENE visible
02 Apr -3.1 21:26:45 10° WNW 21:29:56 47° N 21:30:11 46° NNE visible
03 Apr -3.1 20:34:10 10° W 20:37:23 51° N 20:39:52 15° ENE visible
03 Apr -1.6 22:10:53 10° WNW 22:12:30 26° WNW 22:12:30 26° WNW visible
04 Apr -3.2 21:18:22 10° WNW 21:21:34 50° N 21:22:07 43° NE visible
05 Apr -3.0 20:25:48 10° WNW 20:28:59 47° N 20:31:42 13° ENE visible
05 Apr -2.1 22:02:22 10° WNW 22:04:20 33° WNW 22:04:20 33° WNW visible
